| time (UTC) | temp C | wind direction | speed KPH | gust KPH | rain 1hr cm | rain 24hr cm | rain mn cm | humidity % | barometer mb |
| 20260509163031 | 17 | 286 | 0.0 | 4.8 | 0.00 | 0.00 | 0.00 | 49 | 1022.7 |
| 20260509161646 | 17 | 349 | 1.6 | 4.8 | 0.00 | 0.00 | 0.00 | 51 | 1022.9 |
| 20260509160113 | 16 | 6 | 0.0 | 6.4 | 0.00 | 0.00 | 0.00 | 53 | 1022.9 |
| 20260509153030 | 15 | 294 | 0.0 | 3.2 | 0.00 | 0.00 | 0.00 | 57 | 1023.1 |
| 20260509151530 | 14 | 298 | 3.2 | 4.8 | 0.00 | 0.00 | 0.00 | 60 | 1023.2 |
| 20260509150030 | 13 | 21 | 0.0 | 4.8 | 0.00 | 0.00 | 0.00 | 65 | 1023.1 |
| 20260509144531 | 12 | 67 | 0.0 | 0.0 | 0.00 | 0.00 | 0.00 | 73 | 1023.2 |
| 20260509143031 | 11 | 105 | 0.0 | 1.6 | 0.00 | 0.00 | 0.00 | 81 | 1023.3 |
| 20260509141646 | 8 | 135 | 0.0 | 0.0 | 0.00 | 0.00 | 0.00 | 87 | 1023.2 |
| 20260509140029 | 6 | 135 | 0.0 | 0.0 | 0.00 | 0.00 | 0.00 | 90 | 1023.0 |
| 20260509134528 | 3 | 182 | 0.0 | 3.2 | 0.00 | 0.00 | 0.00 | 91 | 1022.9 |
| 20260509133030 | 2 | 198 | 0.0 | 4.8 | 0.00 | 0.00 | 0.00 | 92 | 1022.7 |
| 20260509131531 | 2 | 150 | 1.6 | 9.7 | 0.00 | 0.00 | 0.00 | 92 | 1022.6 |
| 20260509130028 | 2 | 164 | 4.8 | 33.8 | 0.00 | 0.00 | 0.00 | 93 | 1022.3 |
| 20260509124532 | 2 | 212 | 1.6 | 37.0 | 0.00 | 0.00 | 0.00 | 92 | 1022.2 |
| 20260509123106 | 2 | 205 | 1.6 | 6.4 | 0.00 | 0.00 | 0.00 | 92 | 1022.2 |
| 20260509121541 | 2 | 193 | 3.2 | 6.4 | 0.00 | 0.00 | 0.00 | 92 | 1022.2 |
| 20260509120031 | 2 | 189 | 3.2 | 38.6 | 0.00 | 0.00 | 0.00 | 91 | 1022.1 |
| 20260509114606 | 2 | 225 | 0.0 | 11.3 | 0.00 | 0.00 | 0.00 | 91 | 1022.1 |
| 20260509111530 | 2 | 220 | 0.0 | 4.8 | 0.00 | 0.00 | 0.00 | 90 | 1022.3 |
| 20260509110031 | 3 | 145 | 0.0 | 6.4 | 0.00 | 0.00 | 0.00 | 90 | 1022.3 |
| 20260509104531 | 3 | 170 | 1.6 | 8.0 | 0.00 | 0.00 | 0.00 | 89 | 1022.3 |
| 20260509103030 | 4 | 255 | 0.0 | 4.8 | 0.00 | 0.00 | 0.00 | 89 | 1022.4 |
| 20260509101605 | 4 | 188 | 3.2 | 8.0 | 0.00 | 0.00 | 0.00 | 88 | 1022.5 |
| 20260509100032 | 4 | 172 | 1.6 | 8.0 | 0.00 | 0.00 | 0.00 | 87 | 1022.6 |
| 20260509094529 | 5 | 292 | 0.0 | 4.8 | 0.00 | 0.00 | 0.00 | 85 | 1022.7 |
| 20260509093029 | 5 | 212 | 3.2 | 8.0 | 0.00 | 0.00 | 0.00 | 83 | 1022.7 |
| 20260509091604 | 6 | 354 | 0.0 | 4.8 | 0.00 | 0.00 | 0.00 | 82 | 1022.8 |
| 20260509090030 | 7 | 49 | 0.0 | 9.7 | 0.00 | 0.00 | 0.00 | 81 | 1023.0 |
| 20260509084531 | 7 | 148 | 4.8 | 16.1 | 0.00 | 0.00 | 0.00 | 81 | 1023.2 |
| 20260509083033 | 7 | 153 | 6.4 | 14.5 | 0.00 | 0.00 | 0.00 | 81 | 1023.4 |
| 20260509081531 | 7 | 164 | 6.4 | 8.0 | 0.00 | 0.00 | 0.00 | 80 | 1023.6 |
| 20260509080028 | 8 | 159 | 4.8 | 11.3 | 0.00 | 0.00 | 0.00 | 80 | 1023.8 |
| 20260509073031 | 7 | 156 | 8.0 | 16.1 | 0.00 | 0.00 | 0.00 | 82 | 1023.9 |
| 20260509063030 | 10 | 208 | 3.2 | 6.4 | 0.00 | 0.00 | 0.00 | 72 | 1024.2 |
| 20260509061530 | 11 | 250 | 1.6 | 6.4 | 0.00 | 0.00 | 0.00 | 71 | 1024.2 |
| 20260509060032 | 11 | 316 | 3.2 | 9.7 | 0.00 | 0.00 | 0.00 | 71 | 1024.1 |
| 20260509054532 | 11 | 137 | 3.2 | 8.0 | 0.00 | 0.00 | 0.00 | 71 | 1024.2 |
| 20260509053031 | 11 | 272 | 1.6 | 6.4 | 0.00 | 0.00 | 0.00 | 71 | 1024.1 |
| 20260509051529 | 10 | 260 | 1.6 | 11.3 | 0.00 | 0.00 | 0.00 | 72 | 1024.0 |
| 20260509050031 | 10 | 275 | 1.6 | 8.0 | 0.00 | 0.00 | 0.00 | 71 | 1023.9 |
| 20260509043031 | 11 | 248 | 3.2 | 12.9 | 0.00 | 0.00 | 0.00 | 69 | 1023.8 |
| 20260509041530 | 11 | 231 | 3.2 | 11.3 | 0.00 | 0.00 | 0.00 | 67 | 1023.5 |
| 20260509034605 | 12 | 246 | 3.2 | 12.9 | 0.00 | 0.00 | 0.00 | 63 | 1023.2 |
| 20260509031531 | 13 | 257 | 4.8 | 17.7 | 0.00 | 0.00 | 0.00 | 59 | 1022.7 |
| 20260509030146 | 13 | 255 | 4.8 | 16.1 | 0.00 | 0.00 | 0.00 | 57 | 1022.6 |
| 20260509024530 | 15 | 250 | 4.8 | 11.3 | 0.00 | 0.00 | 0.00 | 54 | 1022.5 |
| 20260509023032 | 15 | 263 | 6.4 | 14.5 | 0.00 | 0.00 | 0.00 | 51 | 1022.4 |
| 20260509021529 | 16 | 259 | 6.4 | 24.1 | 0.00 | 0.00 | 0.00 | 49 | 1022.3 |
| 20260509020030 | 16 | 250 | 8.0 | 22.5 | 0.00 | 0.00 | 0.00 | 47 | 1022.2 |
| 20260509013104 | 17 | 261 | 9.7 | 24.1 | 0.00 | 0.00 | 0.00 | 44 | 1022.1 |
| 20260509011531 | 18 | 261 | 9.7 | 29.0 | 0.00 | 0.00 | 0.00 | 42 | 1022.1 |
| 20260509010030 | 18 | 265 | 12.9 | 24.1 | 0.00 | 0.00 | 0.00 | 40 | 1022.0 |
| 20260509004530 | 19 | 274 | 12.9 | 29.0 | 0.00 | 0.00 | 0.00 | 39 | 1021.9 |
| 20260509003030 | 20 | 276 | 8.0 | 22.5 | 0.00 | 0.00 | 0.00 | 37 | 1021.9 |
| 20260509001530 | 20 | 258 | 11.3 | 33.8 | 0.00 | 0.00 | 0.00 | 35 | 1021.6 |
| 20260509000058 | 20 | 251 | 6.4 | 19.3 | 0.00 | 0.00 | 0.00 | 34 | 1021.5 |
| 20260508233030 | 20 | 246 | 9.7 | 38.6 | 0.00 | 0.00 | 0.00 | 34 | 1021.2 |
| 20260508231528 | 20 | 267 | 11.3 | 37.0 | 0.00 | 0.00 | 0.00 | 33 | 1021.2 |
| 20260508230029 | 20 | 276 | 9.7 | 27.4 | 0.00 | 0.00 | 0.00 | 32 | 1021.1 |
| 20260508224605 | 20 | 260 | 14.5 | 29.0 | 0.00 | 0.00 | 0.00 | 30 | 1021.1 |
| 20260508223030 | 20 | 264 | 12.9 | 30.6 | 0.00 | 0.00 | 0.00 | 30 | 1021.0 |
| 20260508221531 | 20 | 264 | 12.9 | 32.2 | 0.00 | 0.00 | 0.00 | 30 | 1021.0 |
| 20260508220028 | 20 | 258 | 8.0 | 27.4 | 0.00 | 0.00 | 0.00 | 31 | 1021.0 |
| 20260508214617 | 19 | 256 | 9.7 | 29.0 | 0.00 | 0.00 | 0.00 | 30 | 1021.1 |
| 20260508213103 | 18 | 243 | 12.9 | 30.6 | 0.00 | 0.00 | 0.00 | 31 | 1021.1 |
| 20260508210029 | 18 | 240 | 9.7 | 25.7 | 0.00 | 0.00 | 0.00 | 33 | 1020.9 |
| 20260508204530 | 18 | 264 | 11.3 | 25.7 | 0.00 | 0.00 | 0.00 | 34 | 1020.9 |
| 20260508201605 | 18 | 263 | 9.7 | 24.1 | 0.00 | 0.00 | 0.00 | 33 | 1020.9 |
| 20260508191529 | 18 | 273 | 12.9 | 33.8 | 0.00 | 0.00 | 0.00 | 37 | 1020.7 |
| 20260508190104 | 17 | 286 | 14.5 | 32.2 | 0.00 | 0.00 | 0.00 | 36 | 1020.6 |
| 20260508184529 | 17 | 284 | 14.5 | 32.2 | 0.00 | 0.00 | 0.00 | 37 | 1020.6 |
| 20260508183030 | 17 | 286 | 9.7 | 29.0 | 0.00 | 0.00 | 0.00 | 49 | 1020.6 |
| 20260508181606 | 15 | 69 | 1.6 | 6.4 | 0.00 | 0.00 | 0.00 | 63 | 1020.5 |
| 20260508180030 | 13 | 213 | 0.0 | 4.8 | 0.00 | 0.00 | 0.00 | 66 | 1020.6 |
| 20260508174529 | 13 | 226 | 1.6 | 4.8 | 0.00 | 0.00 | 0.00 | 66 | 1020.6 |
| 20260508173030 | 13 | 271 | 1.6 | 8.0 | 0.00 | 0.00 | 0.00 | 65 | 1020.3 |
| 20260508170030 | 12 | 65 | 3.2 | 6.4 | 0.00 | 0.00 | 0.00 | 64 | 1020.1 |